Flag for U.S.A. Weather past 2 weeks in Bowling Green, Kentucky, U.S.A.

60 °F


Feels Like: 60 °F
Forecast: 57 / 82 °F
Wind: No wind

Location: Glasgow Municipal Airport

Current Time: Oct 6, 2015 at 11:38:19 PM

Latest Report: Oct 6, 2015 at 11:15 PM

Visibility: 10 mi

Pressure: 30.05 "Hg

Humidity: 100%

Dew point: 60 °F

Location of Bowling GreenLocation

Historic Weather in Bowling Green — Graph


Bowling Green temperature yesterday

Maximum temperature yesterday: 83 °F (at 3:35 PM)
Minimum temperature yesterday: 58 °F (at 6:55 AM)
Average temperature yesterday: 68 °F

Past Weeks' High & Low Weather Summary

High87 °F (Sep 24, 3:15 PM)100% (Sep 21, 11:55 PM)30.22 "Hg (Sep 21, 11:55 PM)
Low47 °F (Sep 22, 5:55 AM)31% (Sep 22, 2:35 PM)29.83 "Hg (Sep 29, 3:15 PM)
Average65 °F82%30.03 "Hg
* Reported Sep 21 10:15 PM — Oct 6 10:35 PM, Bowling Green, Weather by CustomWeather, © 2015

Note: Actual official high and low records may vary slightly from our data, if they occured in-between our weather recording intervals... More about our weather records


Bowling Green weather history for previous 24 hours

Time TempWeatherWind HumidityBarometerVisibility
10:35 PM
Tue, Oct 6
61 °FClear.No wind100%30.05 "Hg10 mi
10:15 PM62 °FClear.No wind88%30.05 "Hg10 mi
9:55 PM62 °FClear.No wind87%30.05 "Hg10 mi
9:35 PM62 °FClear.No wind85%30.05 "Hg10 mi
9:15 PM63 °FClear.No wind85%30.04 "Hg10 mi
8:55 PM63 °FClear.No wind84%30.04 "Hg10 mi
8:15 PM64 °FClear.No wind79%30.04 "Hg10 mi
7:55 PM66 °FClear.No wind74%30.04 "Hg10 mi
7:35 PM66 °FClear.No wind73%30.04 "Hg7 mi
7:15 PM69 °FClear.3 mph67%30.04 "Hg7 mi
6:55 PM71 °FClear.3 mph61%30.04 "Hg10 mi
6:35 PM72 °FClear.3 mph59%30.03 "Hg10 mi
6:15 PM75 °FSunny.No wind51%30.03 "Hg10 mi
5:55 PM78 °FSunny.No wind44%30.02 "Hg10 mi
5:35 PM79 °FSunny.5 mph40%30.02 "Hg10 mi
4:15 PM82 °FSunny.3 mph37%30.01 "Hg10 mi
3:55 PM82 °FSunny.7 mph40%30.02 "Hg10 mi
3:35 PM82 °FSunny.8 mph39%30.02 "Hg10 mi
3:15 PM82 °FSunny.3 mph40%30.02 "Hg10 mi
2:55 PM82 °FSunny.3 mph40%30.02 "Hg10 mi
2:35 PM82 °FSunny.3 mph39%30.03 "Hg10 mi
2:15 PM82 °FSunny.6 mph40%30.04 "Hg10 mi
1:55 PM82 °FSunny.5 mph41%30.04 "Hg10 mi
1:15 PM82 °FSunny.7 mph41%30.05 "Hg10 mi
12:55 PM81 °FSunny.5 mph41%30.07 "Hg10 mi
12:35 PM81 °FSunny.No wind43%30.08 "Hg10 mi
12:15 PM80 °FSunny.6 mph44%30.08 "Hg10 mi
11:55 AM80 °FSunny.7 mph47%30.08 "Hg10 mi
11:35 AM79 °FSunny.6 mph46%30.09 "Hg10 mi
11:15 AM78 °FSunny.3 mph51%30.09 "Hg10 mi
10:55 AM76 °FSunny.3 mph55%30.09 "Hg10 mi
10:35 AM75 °FSunny.5 mph59%30.09 "Hg10 mi
10:15 AM74 °FSunny.No wind63%30.09 "Hg10 mi
9:55 AM72 °FSunny.3 mph66%30.10 "Hg10 mi
9:35 AM70 °FSunny.5 mph68%30.09 "Hg10 mi
9:15 AM68 °FSunny.5 mph73%30.09 "Hg10 mi
8:55 AM66 °FSunny.No wind78%30.09 "Hg10 mi
8:35 AM68 °FSunny.5 mph73%30.08 "Hg10 mi
8:15 AM66 °FSunny.No wind76%30.08 "Hg10 mi
7:55 AM64 °FSunny.3 mph88%30.08 "Hg10 mi
7:35 AM62 °FSunny.No wind92%30.06 "Hg10 mi
7:15 AM58 °FSunny.No wind100%30.05 "Hg10 mi
6:55 AM58 °FSunny.No wind100%30.04 "Hg10 mi
6:35 AM58 °FClear.No wind100%30.04 "Hg10 mi
6:15 AM57 °FClear.5 mph100%30.04 "Hg10 mi
5:55 AM56 °FClear.5 mph100%30.04 "Hg10 mi
5:35 AM58 °FClear.No wind100%30.04 "Hg10 mi
5:15 AM58 °FClear.No wind100%30.04 "Hg10 mi
4:55 AM58 °FClear.No wind100%30.03 "Hg10 mi
4:15 AM58 °FClear.No wind100%30.02 "Hg10 mi
3:55 AM59 °FClear.No wind100%30.02 "Hg10 mi
3:35 AM59 °FClear.No wind100%30.02 "Hg10 mi
3:15 AM59 °FClear.No wind100%30.02 "Hg10 mi
2:55 AM59 °FClear.No wind100%30.03 "Hg10 mi
2:15 AM60 °FClear.No wind100%30.03 "Hg10 mi
1:55 AM60 °FClear.No wind100%30.04 "Hg10 mi
1:35 AM60 °FClear.No wind100%30.04 "Hg10 mi
1:15 AM61 °FClear.No wind100%30.04 "Hg10 mi
12:55 AM61 °FClear.No wind100%30.04 "Hg10 mi
12:35 AM62 °FClear.No wind98%30.04 "Hg10 mi
12:15 AM62 °FClear.No wind90%30.04 "Hg10 mi
11:35 PM
Mon, Oct 5
62 °FClear.No wind85%30.04 "Hg10 mi
11:15 PM64 °FClear.No wind82%30.04 "Hg10 mi
Weather by CustomWeather, © 2015

See weather overviewHow to use our weather pages